Location: Arborea
(39.7744°N, 8.5819°E)
Time: 03:11:57
(UTC+00:00)

Envisat - Visible Passes

Search period start: 21 February 2024 00:00
Search period end: 02 March 2024 00:00
Orbit: 762 x 764 km, 98.3° (Epoch: 20 February)

Date Brightness Start Highest point End Pass type
(mag) Time Alt. Az. Time Alt. Az. Time Alt. Az.
22 Feb 5.4 03:46:24 10° N 03:46:40 11° N 03:46:40 11° N visible
23 Feb 5.5 03:08:39 10° N 03:09:05 12° N 03:09:05 12° N visible
24 Feb 5.9 02:31:27 10° NNE 02:31:28 10° NNE 02:31:28 10° NNE visible
24 Feb 5.3 04:11:32 10° NNW 04:11:39 10° NNW 04:11:39 10° NNW visible
25 Feb 5.2 03:33:18 10° N 03:34:03 14° N 03:34:03 14° N visible
26 Feb 5.5 02:55:44 10° NNE 02:56:28 14° NNE 02:56:28 14° NNE visible
27 Feb 5.9 02:18:43 10° NNE 02:18:52 11° NNE 02:18:52 11° NNE visible
27 Feb 5.1 03:58:12 10° NNW 03:59:02 14° NNW 03:59:02 14° NNW visible
28 Feb 5.1 03:20:15 10° N 03:21:26 17° N 03:21:26 17° N visible
29 Feb 5.4 02:42:52 10° NNE 02:43:51 16° NNE 02:43:51 16° NNE visible
29 Feb 5.1 04:23:38 10° NNW 04:24:01 11° NNW 04:24:01 11° NNW visible
01 Mar 5.9 02:06:04 10° NE 02:06:16 11° NE 02:06:16 11° NE visible
01 Mar 4.9 03:45:01 10° N 03:46:26 17° NNW 03:46:26 17° NNW visible
